GW3623 Weather Reports


Display with metric or nautical units.
time (UTC)temp
F
wind
direction
speed
MPH
gust
MPH
rain 1hr
in
rain 24hr
in
rain mn
in
humidity
%
barometer
mb
20260502215110 64 216 1.0 1.0 0.00 0.00 0.00 35 1003.5
20260502214607 64 261 1.0 1.0 0.00 0.00 0.00 35 1003.6
20260502214104 63 279 0.0 1.0 0.00 0.00 0.00 38 1003.8
20260502213601 62 279 1.0 1.0 0.00 0.00 0.00 36 1003.5
20260502213058 62 331 0.0 0.0 0.00 0.00 0.00 37 1003.7
20260502212557 62 77 1.0 1.0 0.00 0.00 0.00 37 1003.6
20260502212055 62 261 0.0 0.0 0.00 0.00 0.00 36 1003.6
20260502211550 62 243 2.0 3.0 0.00 0.00 0.00 35 1003.9
20260502211048 63 276 2.0 3.0 0.00 0.00 0.00 34 1004.1
20260502210544 63 329 2.0 2.0 0.00 0.00 0.00 36 1004.0
20260502210041 63 357 3.0 3.0 0.00 0.00 0.00 34 1004.1
20260502205538 63 287 1.0 1.0 0.00 0.00 0.00 34 1004.2
20260502205035 64 198 0.0 0.0 0.00 0.00 0.00 37 1004.3
20260502204532 63 124 1.0 2.0 0.00 0.00 0.00 35 1004.2
20260502204030 63 114 1.0 1.0 0.00 0.00 0.00 33 1004.3
20260502203526 63 31 1.0 1.0 0.00 0.00 0.00 33 1004.3
20260502203023 63 255 1.0 2.0 0.00 0.00 0.00 33 1004.6
20260502202519 64 260 3.0 4.0 0.00 0.00 0.00 33 1004.4
20260502202018 64 340 1.0 1.0 0.00 0.00 0.00 32 1004.5
20260502201514 64 281 2.0 3.0 0.00 0.00 0.00 32 1004.5
20260502201010 65 283 3.0 3.0 0.00 0.00 0.00 32 1004.4
20260502200506 65 133 2.0 2.0 0.00 0.00 0.00 31 1004.4
20260502200004 63 313 0.0 1.0 0.00 0.00 0.00 32 1004.6
20260502195501 63 88 2.0 2.0 0.00 0.00 0.00 35 1004.7
20260502194957 63 252 1.0 1.0 0.00 0.00 0.00 35 1004.9
20260502194454 63 183 0.0 1.0 0.00 0.00 0.00 34 1004.8
20260502193950 62 248 0.0 1.0 0.00 0.00 0.00 34 1004.9
20260502193448 64 272 2.0 4.0 0.00 0.00 0.00 33 1004.9
20260502192943 63 98 1.0 2.0 0.00 0.00 0.00 36 1005.3
20260502192440 63 280 3.0 4.0 0.00 0.00 0.00 33 1005.1
20260502191937 61 60 0.0 1.0 0.00 0.00 0.00 37 1005.2
20260502191435 61 194 0.0 1.0 0.00 0.00 0.00 33 1005.5
20260502190932 62 102 2.0 2.0 0.00 0.00 0.00 33 1005.4
20260502190429 63 144 2.0 3.0 0.00 0.00 0.00 30 1005.5
20260502185925 62 147 2.0 3.0 0.00 0.00 0.00 32 1005.6
20260502185421 63 303 2.0 2.0 0.00 0.00 0.00 33 1005.7
20260502184918 61 75 1.0 2.0 0.00 0.00 0.00 34 1005.5
20260502184414 62 166 1.0 1.0 0.00 0.00 0.00 33 1005.8
20260502183910 62 160 3.0 4.0 0.00 0.00 0.00 32 1005.8
20260502183407 60 305 1.0 1.0 0.00 0.00 0.00 35 1006.0
20260502182902 62 37 0.0 0.0 0.00 0.00 0.00 34 1005.9
20260502182358 61 297 0.0 0.0 0.00 0.00 0.00 32 1006.0
20260502181854 60 282 1.0 2.0 0.00 0.00 0.00 32 1005.9
20260502181353 62 276 2.0 2.0 0.00 0.00 0.00 32 1006.1
20260502180851 60 26 1.0 1.0 0.00 0.00 0.00 33 1006.0
20260502180347 62 152 3.0 4.0 0.00 0.00 0.00 34 1006.2
20260502170306 59 147 1.0 1.0 0.00 0.00 0.00 32 1006.7
20260502164254 58 206 2.0 3.0 0.00 0.00 0.00 32 1007.0
20260502163749 57 291 1.0 2.0 0.00 0.00 0.00 33 1007.1
20260502163246 58 253 2.0 2.0 0.00 0.00 0.00 32 1007.1
20260502162743 58 257 1.0 2.0 0.00 0.00 0.00 32 1007.1
20260502162240 56 102 0.0 0.0 0.00 0.00 0.00 37 1007.1
20260502161737 55 194 1.0 1.0 0.00 0.00 0.00 35 1007.2
20260502161233 55 215 1.0 2.0 0.00 0.00 0.00 34 1007.4
20260502160731 53 308 0.0 0.0 0.00 0.00 0.00 34 1007.6
20260502160230 54 205 0.0 0.0 0.00 0.00 0.00 35 1007.6
20260502152148 55 214 2.0 2.0 0.00 0.00 0.00 36 1007.8
20260502151646 53 113 1.0 1.0 0.00 0.00 0.00 38 1008.0
20260502151143 54 169 1.0 1.0 0.00 0.00 0.00 39 1008.3
20260502150640 53 176 2.0 3.0 0.00 0.00 0.00 36 1008.2
20260502150136 51 260 1.0 1.0 0.00 0.00 0.00 40 1008.4
20260502130525 41 91 0.0 0.0 0.00 0.00 0.00 64 1009.1
20260502123509 34 82 0.0 0.0 0.00 0.00 0.00 80 1009.2
20260502123005 32 82 0.0 0.0 0.00 0.00 0.00 87 1009.2
20260502122501 31 83 0.0 0.0 0.00 0.00 0.00 87 1009.4
20260502121959 30 83 0.0 0.0 0.00 0.00 0.00 89 1009.3
20260502121456 29 83 0.0 0.0 0.00 0.00 0.00 90 1009.4
20260502120954 28 83 0.0 0.0 0.00 0.00 0.00 90 1009.1
20260502120450 28 83 0.0 0.0 0.00 0.00 0.00 91 1009.2
20260502115444 27 83 0.0 0.0 0.00 0.00 0.00 92 1009.3
20260502114940 26 83 0.0 0.0 0.00 0.00 0.00 93 1009.5
20260502114437 26 81 0.0 0.0 0.00 0.00 0.00 93 1009.5
20260502113934 25 81 0.0 0.0 0.00 0.00 0.00 94 1009.5
20260502113432 25 82 0.0 0.0 0.00 0.00 0.00 95 1009.4
20260502112930 24 82 0.0 0.0 0.00 0.00 0.00 95 1009.4
20260502112427 24 82 0.0 0.0 0.00 0.00 0.00 95 1009.5
20260502111925 24 81 0.0 0.0 0.00 0.00 0.00 94 1009.4
20260502111422 24 81 0.0 0.0 0.00 0.00 0.00 95 1009.5
20260502110919 24 81 0.0 0.0 0.00 0.00 0.00 95 1009.3
20260502110417 24 81 0.0 0.0 0.00 0.00 0.00 95 1009.4
20260502105914 23 81 0.0 0.0 0.00 0.00 0.00 95 1009.5
20260502105411 23 81 0.0 0.0 0.00 0.00 0.00 94 1009.5
20260502104909 24 81 0.0 0.0 0.00 0.00 0.00 95 1009.5
20260502104406 24 81 0.0 0.0 0.00 0.00 0.00 95 1009.7
20260502103903 23 81 0.0 0.0 0.00 0.00 0.00 94 1009.6
20260502103401 23 81 0.0 0.0 0.00 0.00 0.00 94 1009.8
20260502102857 24 81 0.0 0.0 0.00 0.00 0.00 94 1009.6
20260502102354 24 81 0.0 0.0 0.00 0.00 0.00 95 1009.9
20260502101852 24 81 0.0 0.0 0.00 0.00 0.00 95 1010.1
20260502101350 24 81 0.0 0.0 0.00 0.00 0.00 94 1009.9
20260502100848 24 81 0.0 0.0 0.00 0.00 0.00 94 1009.8
20260502100347 24 81 0.0 0.0 0.00 0.00 0.00 94 1009.9
20260502091320 25 81 0.0 0.0 0.00 0.00 0.00 92 1010.2
20260502090818 25 81 0.0 0.0 0.00 0.00 0.00 92 1010.3
20260502090314 25 81 0.0 0.0 0.00 0.00 0.00 92 1010.2
20260502071210 26 81 0.0 0.0 0.00 0.00 0.00 89 1011.1
20260502070708 26 81 0.0 0.0 0.00 0.00 0.00 89 1011.0
20260502070205 26 81 0.0 0.0 0.00 0.00 0.00 89 1011.0
20260502065704 27 81 0.0 0.0 0.00 0.00 0.00 88 1011.1
20260502065201 27 81 0.0 0.0 0.00 0.00 0.00 88 1011.2
20260502064700 27 81 0.0 0.0 0.00 0.00 0.00 88 1011.3
20260502064156 27 81 0.0 0.0 0.00 0.00 0.00 88 1011.2
20260502063654 27 81 0.0 0.0 0.00 0.00 0.00 88 1011.4
20260502063152 27 81 0.0 0.0 0.00 0.00 0.00 88 1011.5
20260502062649 27 81 0.0 0.0 0.00 0.00 0.00 89 1011.4
20260502062146 27 81 0.0 0.0 0.00 0.00 0.00 87 1011.5
20260502061644 27 81 0.0 0.0 0.00 0.00 0.00 86 1011.4
20260502061143 28 81 0.0 0.0 0.00 0.00 0.00 87 1011.5
20260502060642 28 81 0.0 0.0 0.00 0.00 0.00 86 1011.6
20260502060139 28 81 0.0 0.0 0.00 0.00 0.00 86 1011.6
20260502055637 28 81 0.0 0.0 0.00 0.00 0.00 85 1011.6
20260502055134 28 81 0.0 0.0 0.00 0.00 0.00 84 1011.6
20260502054633 28 81 0.0 0.0 0.00 0.00 0.00 81 1011.8
20260502054130 28 81 0.0 0.0 0.00 0.00 0.00 83 1011.8
20260502053627 28 81 0.0 0.0 0.00 0.00 0.00 80 1011.8
20260502053124 28 81 0.0 0.0 0.00 0.00 0.00 84 1011.8
20260502052623 28 81 0.0 0.0 0.00 0.00 0.00 84 1011.7
20260502052121 28 81 0.0 0.0 0.00 0.00 0.00 82 1011.6
20260502051619 29 81 0.0 0.0 0.00 0.00 0.00 84 1011.6
20260502051117 29 81 0.0 0.0 0.00 0.00 0.00 84 1011.9
20260502050612 29 81 0.0 0.0 0.00 0.00 0.00 82 1011.8
20260502050109 29 81 0.0 0.0 0.00 0.00 0.00 82 1011.9
20260502045605 29 81 0.0 0.0 0.00 0.00 0.00 81 1011.8
20260502045103 29 81 0.0 0.0 0.00 0.00 0.00 80 1011.8
20260502044559 29 81 0.0 0.0 0.00 0.00 0.00 80 1011.9
20260502044056 29 81 0.0 0.0 0.00 0.00 0.00 80 1012.0
20260502043554 29 81 0.0 0.0 0.00 0.00 0.00 78 1012.1
20260502043050 29 81 0.0 0.0 0.00 0.00 0.00 79 1012.1
20260502042544 30 81 0.0 0.0 0.00 0.00 0.00 77 1012.3
20260502042043 30 81 0.0 0.0 0.00 0.00 0.00 76 1012.1
20260502041540 30 81 0.0 0.0 0.00 0.00 0.00 76 1012.2
20260502041037 30 81 0.0 0.0 0.00 0.00 0.00 76 1012.3
20260502040533 30 81 0.0 0.0 0.00 0.00 0.00 76 1012.1
20260502040031 31 81 0.0 0.0 0.00 0.00 0.00 76 1012.2
20260502035526 32 81 0.0 0.0 0.00 0.00 0.00 74 1012.3
20260502035024 32 81 0.0 0.0 0.00 0.00 0.00 74 1012.5
20260502034522 32 81 0.0 0.0 0.00 0.00 0.00 73 1012.3
20260502034020 33 81 0.0 0.0 0.00 0.00 0.00 72 1012.3
20260502033518 34 81 0.0 0.0 0.00 0.00 0.00 72 1012.3
20260502033015 34 80 0.0 0.0 0.00 0.00 0.00 75 1012.3
20260502032511 34 78 0.0 0.0 0.00 0.00 0.00 73 1012.3
20260502032008 34 81 0.0 0.0 0.00 0.00 0.00 71 1012.7
20260502031506 36 70 2.0 2.0 0.00 0.00 0.00 66 1012.5
20260502031004 37 71 0.0 1.0 0.00 0.00 0.00 68 1012.7
20260502030502 37 321 0.0 0.0 0.00 0.00 0.00 70 1012.2
20260502030000 37 321 0.0 0.0 0.00 0.00 0.00 71 1012.5
20260502025456 37 321 0.0 0.0 0.00 0.00 0.00 66 1012.4
20260502024954 37 345 0.0 0.0 0.00 0.00 0.00 63 1012.3
20260502024452 37 48 0.0 0.0 0.00 0.00 0.00 60 1012.4
20260502023950 37 48 0.0 0.0 0.00 0.00 0.00 56 1012.4
20260502023447 37 48 0.0 0.0 0.00 0.00 0.00 53 1012.3
20260502022945 38 48 0.0 0.0 0.00 0.00 0.00 53 1012.3
20260502022441 38 48 0.0 0.0 0.00 0.00 0.00 52 1012.5
20260502021938 38 48 0.0 0.0 0.00 0.00 0.00 53 1012.2
20260502021435 38 48 0.0 0.0 0.00 0.00 0.00 54 1012.3
20260502020932 39 48 0.0 0.0 0.00 0.00 0.00 57 1012.3
20260502020430 39 48 0.0 0.0 0.00 0.00 0.00 57 1012.3
20260502015927 39 48 0.0 0.0 0.00 0.00 0.00 53 1012.2
20260502015425 40 49 0.0 0.0 0.00 0.00 0.00 57 1012.1
20260502014921 41 49 0.0 0.0 0.00 0.00 0.00 55 1012.2
20260502014418 41 48 0.0 0.0 0.00 0.00 0.00 53 1012.1
20260502013914 42 48 0.0 0.0 0.00 0.00 0.00 53 1012.0
20260502013410 43 48 0.0 0.0 0.00 0.00 0.00 48 1012.1
20260502012907 43 48 0.0 0.0 0.00 0.00 0.00 48 1012.2
20260502012405 44 49 0.0 0.0 0.00 0.00 0.00 53 1012.0
20260502011902 45 49 0.0 0.0 0.00 0.00 0.00 50 1012.2
20260502011358 45 61 0.0 0.0 0.00 0.00 0.00 45 1011.9
20260502010855 45 87 0.0 0.0 0.00 0.00 0.00 45 1011.9
20260502010351 44 64 0.0 0.0 0.00 0.00 0.00 46 1012.0
20260502005848 45 166 0.0 0.0 0.00 0.00 0.00 48 1011.8
20260502005346 46 264 0.0 0.0 0.00 0.00 0.00 49 1012.1
20260502004843 46 261 0.0 0.0 0.00 0.00 0.00 47 1011.7
20260502004339 47 126 0.0 0.0 0.00 0.00 0.00 42 1011.9
20260502003837 48 21 0.0 0.0 0.00 0.00 0.00 43 1011.9
20260502003334 48 66 0.0 1.0 0.00 0.00 0.00 40 1011.7
20260502002831 49 239 0.0 1.0 0.00 0.00 0.00 37 1011.9
20260502002328 49 73 0.0 0.0 0.00 0.00 0.00 35 1011.6
20260502001825 50 56 0.0 1.0 0.00 0.00 0.00 37 1011.8
20260502001323 50 13 1.0 2.0 0.00 0.00 0.00 36 1012.0
20260502000820 49 88 1.0 1.0 0.00 0.00 0.00 34 1011.9
20260502000318 49 54 0.0 1.0 0.00 0.00 0.00 35 1011.9
20260501235814 50 8 2.0 3.0 0.00 0.00 0.00 36 1011.9
20260501235310 51 72 0.0 1.0 0.00 0.00 0.00 36 1011.8
20260501234805 51 169 1.0 1.0 0.00 0.00 0.00 37 1011.9
20260501234303 52 341 2.0 3.0 0.00 0.00 0.00 32 1012.0
20260501233801 52 325 0.0 0.0 0.00 0.00 0.00 32 1012.1
20260501233258 52 10 2.0 2.0 0.00 0.00 0.00 36 1012.0
20260501232753 51 337 0.0 1.0 0.00 0.00 0.00 35 1012.0
20260501232251 51 246 2.0 2.0 0.00 0.00 0.00 33 1012.0
20260501231748 51 254 1.0 1.0 0.00 0.00 0.00 36 1012.0
20260501231246 51 351 0.0 0.0 0.00 0.00 0.00 32 1011.9
20260501230744 52 321 1.0 1.0 0.00 0.00 0.00 32 1012.0
20260501230243 52 69 2.0 3.0 0.00 0.00 0.00 33 1012.3
20260501225740 52 343 0.0 0.0 0.00 0.00 0.00 34 1012.2
20260501225237 51 329 1.0 2.0 0.00 0.00 0.00 33 1012.1
20260501224733 51 237 1.0 1.0 0.00 0.00 0.00 39 1011.9
20260501224231 52 268 0.0 1.0 0.00 0.00 0.00 33 1012.1
20260501223727 53 358 0.0 1.0 0.00 0.00 0.00 34 1012.3
20260501223223 53 316 0.0 0.0 0.00 0.00 0.00 32 1012.0
20260501222719 52 283 0.0 1.0 0.00 0.00 0.00 30 1012.1
20260501222217 52 261 1.0 2.0 0.00 0.00 0.00 31 1012.1
20260501221713 53 238 1.0 2.0 0.00 0.00 0.00 31 1012.0
20260501221211 53 299 1.0 2.0 0.00 0.00 0.00 30 1012.2
20260501220708 53 274 2.0 2.0 0.00 0.00 0.00 31 1012.1
20260501220205 52 219 2.0 3.0 0.00 0.00 0.00 34 1012.1
20260501215702 52 351 3.0 3.0 0.00 0.00 0.00 31 1012.1